Location: Esp�n
(42.4593°N, 0.2047°W)
Time: 00:12:24
(UTC+00:00)

Cosmos 2208 Rocket - Pass Details

Date: 07 June 2020
Orbit: 753 x 807 km, 74.0° (Epoch: 11 July)

Event Time Altitude Azimuth Distance (km) Brightness Sun altitude
Exits shadow 00:23:45 51° 124° (ESE) 977 4.3 -24.5°
Maximum altitude 00:24:13 52° 104° (ESE) 959 4.4 -24.5°
Drops below altitude 10° 00:29:24 10° 29° (NNE) 2,354 7.4 -24.4°
Sets 00:31:51 0° 25° (NNE) 3,296 8.5 -24.3°
